Regional Weather Roundup
Issued by NWS Huntsville, AL

Current Version | Previous Version | Text Only | Print | Product List | Glossary On
Versions: 1 2 3 4 5 6 7 8 9 10 11 12 13 14 15 16 17 18 19 20 21 22 23 24 25 26 27 28 29 30 31 32 33 34 35 36 37 38 39 40 41 42 43 44 45 46 47 48 49 50
000
ASUS44 KHUN 111910
RWRHUN

WEATHER ROUNDUP FOR THE TENNESSEE VALLEY
NATIONAL WEATHER SERVICE HUNTSVILLE AL
100 PM CST THU FEB 11 2016

ALZ001>004-112000-
NORTHWEST ALABAMA

CITY           SKY/WX    TMP DP  RH WIND       PRES   REMARKS
COURTLAND HCN    N/A     46 N/A N/A E7          N/A
RUSSELLVILLE     N/A     50 N/A N/A MISG        N/A
SHOALS AIRPORT SUNNY     48  20  32 E7        30.17F
SHOALS TVA RES   N/A     48 N/A N/A MISG        N/A
$$

ALZ005>007-016-112000-
NORTH CENTRAL ALABAMA

CITY           SKY/WX    TMP DP  RH WIND       PRES   REMARKS
CULLMAN AG STN   N/A     48 N/A N/A NE9         N/A
DECATUR AP     SUNNY     48  20  32 CALM      30.16F
HUNTSVILLE AP  MOSUNNY   51  19  28 NE7       30.15F
HUN NWS/UAH      N/A     49  18  29 NE5         N/A
MERIDIANVILLE  SUNNY     48  12  23 N5        30.15F
REDSTONE ARSN  SUNNY     50  22  32 NE10      30.14F
VINEMONT AP    FAIR      49  24  37 CALM      30.16S
$$

ALZ008>010-112000-
NORTHEAST ALABAMA

CITY           SKY/WX    TMP DP  RH WIND       PRES   REMARKS
ALBERTVILLE    SUNNY     48  30  49 NE5       30.13S
FORT PAYNE     SUNNY     46  14  27 CALM      30.13F
SCOTTSBORO AP  SUNNY     48  21  34 N8        30.16F
SCOTTSBORO HCN   N/A     48 N/A N/A MISG        N/A
VALLEY HEAD      N/A     48 N/A N/A MISG        N/A
$$

TNZ076-096-097-112000-
SOUTHEASTERN MIDDLE TENNESSEE

CITY           SKY/WX    TMP DP  RH WIND       PRES   REMARKS
TULLAHOMA      SUNNY     39  23  52 N7        30.17F WCI  34
WINCHESTER     SUNNY     45  23  42 N8        30.16F
$$

...SURROUNDING SITES...

CITY           SKY/WX    TMP DP  RH WIND       PRES   REMARKS
ATLANTA        SUNNY     51  22  31 CALM      30.12F
ANNISTON       SUNNY     55  27  34 VRB5      30.13F
BIRMINGHAM     SUNNY     55  33  43 E6        30.14S
CHATTANOOGA    MOSUNNY   46  21  37 NE9       30.18F
DALTON         NOT AVBL
GADSDEN        SUNNY     50  23  34 E6        30.16F
GOLDEN TRNGL   SUNNY     63  37  39 N7        30.11F
HALEYVILLE     FAIR      50  26  39 NE8       30.15F
JACKSON TN     SUNNY     48  21  34 NE13      30.19F
MEMPHIS        MOSUNNY   50  21  32 NE9G17    30.16F
NASHVILLE      MOSUNNY   41  22  46 NE9G17    30.23F
OXFORD MS      FAIR      54  27  35 E12       30.15F
ROME           SUNNY     48  20  32 CALM      30.15F
SAVANNAH       SUNNY     50  21  32 NE8       30.16S
TUPELO         SUNNY     53  25  33 NE7       30.15F
TUSCALOOSA     SUNNY     60  37  42 CALM      30.11F
$$

...GULF COAST WEATHER...

CITY           SKY/WX    TMP DP  RH WIND       PRES   REMARKS
GULFPORT       SUNNY     71  53  52 W17G25    30.15F
PASCAGOULA     SUNNY     70  55  59 SW14G21   30.17F
MOBILE         SUNNY     70  52  52 SW9G21    30.14F
GULF SHORES    CLOUDY    67  55  63 SW16G26   30.18F
DESTIN         SUNNY     67  55  65 SW10G17   30.19F
PANAMA CITY    SUNNY     67  51  56 SW12      30.21F
APPALACHICOLA  SUNNY     66  54  65 SW10      30.22F
$$




USA.gov is the U.S. government's official web portal to all federal, state and local government web resources and services.